TimeEDT,TemperatureF,Dew PointF,Humidity,Sea Level PressureIn,VisibilityMPH,Wind Direction,Wind SpeedMPH,Gust SpeedMPH,PrecipitationIn,Events,Conditions,WindDirDegrees,DateUTC
12:53 AM,75.9,72.0,87,29.97,10.0,Calm,Calm,-,N/A,,Clear,0,2013-07-26 04:53:00
1:53 AM,75.0,72.0,90,29.97,10.0,Calm,Calm,-,N/A,,Clear,0,2013-07-26 05:53:00
2:53 AM,75.0,72.0,90,29.97,8.0,Calm,Calm,-,N/A,,Clear,0,2013-07-26 06:53:00
3:53 AM,73.9,71.1,91,29.97,9.0,Calm,Calm,-,N/A,,Clear,0,2013-07-26 07:53:00
4:53 AM,75.0,72.0,90,29.97,8.0,Calm,Calm,-,N/A,,Clear,0,2013-07-26 08:53:00
5:53 AM,75.0,72.0,90,29.98,6.0,Calm,Calm,-,N/A,,Clear,0,2013-07-26 09:53:00
6:53 AM,73.9,71.1,91,29.99,7.0,Calm,Calm,-,N/A,Fog,Patches of Fog,0,2013-07-26 10:53:00
7:53 AM,75.0,72.0,90,30.00,6.0,Calm,Calm,-,N/A,,Partly Cloudy,0,2013-07-26 11:53:00
8:53 AM,80.1,73.0,79,30.02,9.0,North,4.6,-,N/A,,Clear,350,2013-07-26 12:53:00
9:53 AM,84.0,73.0,69,30.02,10.0,Calm,Calm,-,N/A,,Clear,0,2013-07-26 13:53:00
10:53 AM,87.1,72.0,61,30.02,10.0,Calm,Calm,-,N/A,,Partly Cloudy,0,2013-07-26 14:53:00
11:53 AM,91.9,69.1,47,30.02,10.0,Variable,4.6,-,N/A,,Scattered Clouds,0,2013-07-26 15:53:00
12:53 PM,91.0,68.0,47,30.02,10.0,Calm,Calm,-,N/A,,Scattered Clouds,0,2013-07-26 16:53:00
1:53 PM,91.9,66.0,42,30.01,10.0,West,6.9,-,N/A,,Scattered Clouds,280,2013-07-26 17:53:00
2:53 PM,93.0,66.0,41,29.99,10.0,Variable,3.5,-,N/A,,Scattered Clouds,0,2013-07-26 18:53:00
3:53 PM,93.9,64.9,38,29.98,10.0,Variable,3.5,-,N/A,,Scattered Clouds,0,2013-07-26 19:53:00
4:53 PM,95.0,64.9,37,29.96,10.0,WNW,8.1,-,N/A,,Scattered Clouds,300,2013-07-26 20:53:00
5:53 PM,91.0,69.1,48,29.95,10.0,South,4.6,-,N/A,,Scattered Clouds,190,2013-07-26 21:53:00
6:53 PM,91.9,66.0,42,29.95,10.0,Calm,Calm,-,N/A,,Scattered Clouds,0,2013-07-26 22:53:00
7:53 PM,82.0,71.1,69,29.96,3.0,East,9.2,-,0.53,Rain,Heavy Rain,90,2013-07-26 23:53:00
8:53 PM,82.0,72.0,71,29.96,10.0,ESE,5.8,-,0.16,,Mostly Cloudy,110,2013-07-27 00:53:00
9:53 PM,79.0,75.0,88,29.97,10.0,Calm,Calm,-,N/A,,Overcast,0,2013-07-27 01:53:00
10:53 PM,79.0,73.9,84,29.99,10.0,Calm,Calm,-,N/A,,Scattered Clouds,0,2013-07-27 02:53:00
11:53 PM,79.0,73.9,84,29.98,10.0,Calm,Calm,-,N/A,,Clear,0,2013-07-27 03:53:00